Terug naar catalogus

DMSP 5D-2 F13 DEB

ActiefSSO
NORAD 40490·DEBRIS·🇺🇸 United States

Gelanceerd Mar 24, 1995 vanaf Vandenberg Space Force Base

Loading…

Volgende Passages (komende 24 uur)

TLE

VersSource: Space-Track

Epoch: Sep 14, 2026, 04:19 UTC

1 40490U 95015CD  26257.18009003  .00001790  00000-0  13013-2 0  9997
2 40490  98.7778  28.6445 0153875 289.1249  69.3307 13.92060006581018

Volg DMSP 5D-2 F13 DEB in realtime met AllMySat

Download on the App Store